Location: Dealu Mare
(46.0500°N, 22.8167°E)
Time: 23:28:07
(UTC+00:00)

Cosmos 2278 Rocket - Pass Details

Date: 15 January 2026
Orbit: 839 x 846 km, 71.0° (Epoch: 13 February)

Event Time Altitude Azimuth Distance (km) Brightness Sun altitude
Rises 04:56:06 0° 222° (SW) 3,381 5.1 -12.0°
Reaches altitude 10° 04:58:37 10° 228° (SW) 2,451 4.3 -11.6°
Maximum altitude 05:04:03 49° 303° (WNW) 1,080 2.4 -10.7°
Drops below altitude 10° 05:09:32 10° 18° (NNE) 2,470 4.6 -9.8°
Sets 05:12:06 0° 24° (NNE) 3,409 5.4 -9.4°
